Vorticity
nan nan nan nan nan nan nan nan nan nan nan nan nan nan nan nan nan nan nan nan nan nan nan nan nan nan nan nan nan nan nan nan nan nan nan nan nan nan nan nan nan nan nan nan nan
nan 7 7 8 8 8 7 7 6 6 7 6 6 6 6 10 15 17 15 9 10 7 5 7 6 5 2 6 -2 3 7 6 11 15 12 5 4 3 9 4 10 14 9 5 nan
nan 8 8 8 9 8 8 8 8 7 6 6 6 7 6 11 20 21 10 8 8 7 4 3 6 4 1 2 7 6 8 9 7 9 16 8 6 4 5 10 11 11 7 3 nan
nan 8 8 8 9 9 8 8 7 7 7 7 6 7 10 13 11 14 15 10 10 7 5 6 6 4 5 4 8 3 10 17 7 5 10 8 5 7 8 15 11 10 5 7 nan
nan 9 9 8 8 9 9 9 9 8 7 7 7 10 14 9 9 8 11 12 9 7 9 6 6 3 5 2 11 11 12 13 3 15 9 6 5 8 12 13 15 10 6 5 nan
nan 8 9 9 8 8 8 8 9 8 8 8 7 12 13 3 7 11 14 9 9 7 7 4 3 4 4 9 12 12 10 1 5 14 13 5 6 10 12 10 10 6 5 5 nan
nan 8 8 9 9 8 9 8 8 8 7 8 10 9 7 12 8 15 13 8 8 7 4 4 6 4 1 15 5 11 14 -2 3 4 5 9 17 8 12 11 7 6 5 6 nan
nan 8 8 9 9 9 8 8 9 9 9 9 10 8 10 9 12 18 9 9 10 9 7 7 3 6 9 5 8 8 6 4 6 4 3 13 18 9 11 8 5 6 6 6 nan
nan 7 7 9 9 10 9 11 16 13 11 11 10 10 9 7 15 9 11 10 5 8 11 8 9 15 9 1 -1 7 8 10 4 7 4 17 13 7 10 6 6 5 7 6 nan
nan 7 7 7 9 9 9 20 18 12 10 4 11 12 15 11 10 8 10 12 7 5 7 4 9 10 6 7 1 13 10 17 5 7 9 8 9 13 7 3 6 7 5 8 nan
nan 8 8 8 10 9 15 16 12 11 1 8 12 10 11 14 10 10 9 7 5 6 6 10 5 7 12 -1 12 11 16 8 9 8 11 13 8 3 3 7 6 9 8 7 nan
nan 9 8 9 12 13 11 2 4 12 14 17 6 7 13 11 6 10 5 4 7 6 7 7 9 3 4 7 7 4 19 2 10 5 6 14 7 3 9 5 6 7 6 7 nan
nan 9 9 8 17 18 3 8 4 14 11 12 14 15 10 5 10 10 2 5 10 9 11 1 9 10 7 5 7 11 10 6 6 7 8 1 6 13 10 7 4 -0 16 13 nan
nan 8 8 13 14 9 13 7 6 10 17 11 9 11 11 8 21 10 4 8 8 11 7 6 14 14 1 6 8 18 13 15 -0 5 10 -1 1 20 14 7 7 7 3 13 nan
nan 10 14 8 11 7 5 4 13 10 12 8 8 10 12 8 13 14 7 2 9 11 9 8 9 13 6 12 5 9 14 17 -1 -5 11 9 -3 17 14 5 5 6 3 5 nan
nan 14 17 14 8 7 2 10 14 8 7 11 9 10 5 11 4 13 7 -2 13 17 5 5 16 12 5 11 9 2 8 3 13 6 10 13 5 16 14 12 9 5 6 7 nan
nan 19 12 3 11 10 9 12 8 12 11 8 10 12 3 10 16 9 11 7 5 8 10 12 12 6 13 7 9 5 1 3 10 10 6 13 16 21 21 16 15 12 10 7 nan
nan 24 12 4 5 9 12 7 8 6 13 13 8 8 16 7 9 11 6 6 8 5 7 15 6 12 11 4 5 7 2 4 6 9 12 5 11 19 21 17 14 16 11 8 nan
nan 21 11 10 6 8 9 13 11 10 9 10 15 9 10 5 4 14 13 13 12 7 10 13 11 18 5 9 6 6 7 2 2 -0 9 14 12 13 11 13 16 12 12 11 nan
nan 9 12 7 7 8 9 16 12 11 12 5 8 10 9 15 12 11 9 9 10 11 5 13 20 11 7 12 7 7 15 10 1 4 11 11 0 2 14 14 13 15 14 14 nan
nan 9 7 9 9 10 14 12 4 6 7 16 14 10 6 8 7 5 9 18 9 6 9 8 12 10 11 12 8 8 4 6 12 9 6 4 19 13 10 8 12 13 17 16 nan
nan 14 6 8 8 16 9 7 9 11 11 9 6 7 10 12 11 11 14 7 3 11 18 9 14 12 7 13 12 11 6 3 9 6 3 7 9 10 19 15 12 14 18 13 nan
nan 10 10 8 13 11 6 4 13 7 9 10 10 8 9 8 16 10 5 6 13 8 7 19 14 7 16 10 7 16 13 12 2 8 11 11 6 14 7 9 12 15 13 10 nan
nan 11 9 10 10 13 11 8 8 6 8 6 9 11 10 11 9 10 14 5 6 10 5 11 8 9 8 3 22 22 7 7 9 11 10 11 8 5 6 8 9 12 14 13 nan
nan 4 9 17 9 5 14 11 7 12 7 14 6 4 9 11 13 9 14 10 11 11 4 7 7 16 9 5 5 13 24 11 7 5 8 6 1 20 22 8 10 10 8 8 nan
nan 12 6 10 7 7 13 5 13 9 10 10 6 8 10 14 13 5 5 10 21 10 5 6 7 5 9 13 5 12 9 5 15 13 7 4 2 17 18 16 12 11 10 9 nan
nan nan nan nan nan nan nan nan nan nan nan nan nan nan nan nan nan nan nan nan nan nan nan nan nan nan nan nan nan nan nan nan nan nan nan nan nan nan nan nan nan nan nan nan nan
CAPE
4 2 1 5 2 1 1 2 2 0 1 0 1 0 1 0 0 0 0 0 0 0 0 2 25 49 4 0 83 81 412 578 237 319 449 254 349 339 321 345 243 290 84 320 187
4 3 1 1 1 1 1 2 2 2 1 1 0 0 0 0 0 0 0 0 0 0 0 1 52 50 28 0 156 656 591 488 444 383 615 512 397 390 269 243 223 161 196 162 232
1 5 6 3 2 1 4 6 1 2 1 1 1 0 0 0 0 0 0 0 0 0 0 0 78 76 22 105 107 673 615 395 507 479 249 302 338 131 137 109 162 340 302 240 98
3 2 2 1 1 1 1 2 1 2 2 1 0 0 0 0 0 0 0 0 0 0 0 0 0 123 72 98 139 388 652 342 390 370 232 258 245 82 74 125 212 234 108 59 41
1 2 2 3 1 1 2 2 3 1 1 1 1 0 0 0 0 0 0 0 0 0 0 0 0 54 101 214 221 439 447 111 96 289 383 211 82 78 57 123 137 100 38 13 9
1 4 2 2 1 1 1 0 0 0 1 0 0 0 0 0 0 0 0 0 0 0 0 0 0 0 246 329 221 316 453 362 320 585 274 172 62 11 3 89 89 40 7 0 5
3 2 3 1 1 2 1 0 0 0 1 2 0 0 0 0 0 0 0 0 0 0 0 0 0 0 272 237 48 455 365 251 139 355 285 263 91 32 8 14 4 10 3 6 4
0 1 2 3 2 1 1 0 1 1 0 0 0 0 0 0 0 0 0 0 0 0 0 0 0 0 240 30 73 572 211 249 132 386 230 404 129 20 29 23 3 8 11 9 17
0 0 0 1 1 0 0 0 0 1 0 0 0 0 0 0 0 0 0 0 0 0 0 0 0 32 218 90 55 215 351 147 290 139 112 110 217 136 29 29 31 36 38 53 61
0 0 0 0 1 0 0 0 0 0 0 0 0 0 0 0 0 0 0 0 0 0 0 0 0 139 210 156 20 48 114 251 204 12 13 26 81 261 55 65 54 60 76 66 81
0 0 0 2 1 1 0 0 0 0 0 0 0 0 0 0 0 0 0 0 0 0 0 0 0 14 212 144 15 182 87 236 127 12 4 38 98 73 225 256 113 107 66 81 72
0 0 1 1 1 2 0 0 0 0 0 0 0 0 0 0 0 0 0 0 0 0 0 0 0 0 148 188 0 54 363 175 104 40 32 74 94 25 71 306 267 128 72 129 126
0 1 1 0 0 0 0 0 0 0 0 0 0 0 0 0 0 0 0 0 0 0 0 0 0 0 167 247 9 104 181 107 61 124 98 79 31 82 66 99 230 262 156 176 171
0 3 0 0 0 0 0 0 0 0 17 0 0 0 0 0 0 0 0 0 0 0 0 0 0 0 108 144 69 35 296 178 19 170 25 54 18 17 95 128 105 89 161 170 142
1 0 0 0 0 0 0 0 0 0 26 0 0 0 0 0 0 0 0 0 0 0 0 0 0 0 0 63 41 27 30 184 149 163 21 81 44 22 218 169 79 42 80 223 117
1 0 1 0 0 0 0 0 0 2 61 1 0 0 3 0 0 0 0 0 0 0 0 1 0 0 0 4 17 22 78 147 200 134 96 153 173 39 65 280 132 24 11 39 185
0 0 1 0 0 0 0 0 2 55 3 1 2 0 1 2 8 0 0 0 0 0 0 0 0 0 1 6 0 121 264 186 119 98 100 107 126 233 173 159 347 257 21 7 159
0 0 0 0 0 0 0 17 57 4 37 0 0 2 29 4 22 14 0 2 0 5 12 0 0 0 0 39 14 28 130 264 167 178 151 234 122 287 343 316 589 590 150 16 116
0 0 0 0 0 0 4 95 65 59 17 27 2 59 43 3 16 16 37 20 26 9 61 20 8 0 0 0 22 16 79 112 196 12 74 148 307 303 450 349 402 632 626 238 298
0 0 0 0 0 0 33 0 2 2 10 18 20 21 50 41 4 0 60 42 45 11 21 67 45 0 0 0 0 2 32 50 37 34 109 74 208 310 345 415 403 507 692 747 493
0 11 0 0 0 35 48 9 5 0 1 54 30 40 68 30 3 44 18 29 4 21 0 28 31 3 0 0 0 0 0 2 52 35 51 94 213 422 621 646 755 700 544 787 497
2 34 0 0 32 40 37 11 1 2 0 7 10 32 54 39 79 34 9 72 2 0 18 3 44 58 32 3 0 2 0 0 13 27 22 52 443 683 632 595 721 645 579 879 665
18 0 0 0 58 28 0 0 5 16 1 8 16 8 5 97 68 53 51 50 28 2 61 104 13 75 70 31 2 0 4 3 0 14 63 47 371 793 940 1068 1030 889 907 1066 1088
2 15 0 1 0 19 28 20 3 0 0 0 0 0 16 97 107 131 76 52 28 36 88 38 52 65 30 24 0 27 0 6 13 51 32 50 231 776 743 1080 1359 1464 1369 1205 1019
0 15 5 22 0 1 1 0 1 2 0 0 10 0 5 146 165 200 73 82 34 53 57 14 75 57 34 7 10 9 20 5 4 3 57 67 66 79 739 911 1389 1563 1453 1713 1489
34 4 0 0 0 0 0 0 0 0 0 0 0 0 0 157 286 195 140 142 173 191 96 103 95 120 97 9 17 19 42 27 40 15 11 10 33 214 1057 1213 1568 1391 991 1139 1110
0 0 0 0 0 0 2 0 0 0 0 0 0 0 0 86 51 94 73 124 159 220 210 159 128 124 113 47 64 34 41 53 32 29 44 67 38 744 712 984 1302 1292 944 894 1279